Showing default

WISDOM-A, 66688

Orbit data source: Space-Track

WISDOM-A, 66688 is a payload satellite owned by C3S (HU) in SSO that was launched on Fri, 28 Nov 2025 UTC via an FALCON 9 launch vehicle from the Air Force Western Test Range (AFWTR). Payload-class satellites include a variety of spacecraft equipped with specific instruments for various scientific and technological missions. These include communications satellites like Starlink; space stations such as the ISS; scientific satellites like the Hubble; Earth observation satellites from companies like Planet Labs, Umbra, and HawkEye 360; GPS; miniature CubeSats for education and research; and military/defense satellites.

Loading next visibility...
Identifier
66688, 2025-276Y
Orbit
SSO
Country
Flag of HUHU / HUN
Related business
Manufacturer
C3S
Mission
Operational Commercial Technology
Bus & Motor
CUBESAT 3U, Unknown motor
Mass
5 kg wet, 5 kg dry
Launch date (UTC)
2025-11-28 (2 months ago)
Launch vehicle
FALCON 9
Launch site
Air Force Western Test Range (AFWTR)
Object type
Payload
Rocket body
Debris
Shape & HBR
Box + 2 Pan + 6 Ant, 0.5 m
Radar Cross Section
0.255 m²

Expand to show TLE details & history
Last TLE update: 16 hours ago

TLE from 16 hours ago
0 WISDOM-A
1 66688U 25276Y   26034.43318865  .00006825  00000-0  34101-3 0  9992
2 66688  97.4364 110.2608 0006392 103.3643 256.8303 15.17764144 10117
Epoch: 2026-02-03T10:23Z
TLE epoch observation values (Epoch: 2026-02-03T10:23:47.499Z)
Latitude
-0.0001°
Longitude
-179.30129°
Altitude
516.692 km
Speed
7.605 km/s
True Right ascension
07h 21m 02s
True Declination
0° 00' 00"
Sunlit
Object was in full shadow at epoch
Visualization orbit readout
Latitude
Unknown
Longitude
Unknown
Altitude
Unknown
Speed
Unknown
Apparent Right ascension
Unknown
Apparent Declination
Unknown
Sunlit
N/A
Visualization observer readout
Local Sidereal Time
04:10:18
Azimuth
Unknown
Elevation
Unknown
Doppler factor
Unknown
Orbital elements
Apogee altitude
513.972 km
Perigee altitude
505.167 km
Semi-major axis
6,887.707 km
Eccentricity
0.00064
Inclination
97.4364°
RAAN
110.2608°
Arg. of periapsis
103.3643°
True anomaly
256.75899°
Mean anomaly
256.8303°
Eccentric anomaly
256.79464°
Mean motion
3.79692 °/min
Orbital period
94.81 mins
BSTAR
0.00034101
Loading maneuver chart data...
Computing Atmospheric mass density...
Loading historical data...
Loading historical data...
Loading historical data...
Loading historical data...
Loading historical data...
Loading historical data...
Loading historical data...

Documentation

Showing up to 5 results
|